When you browse on this site, cookies collect data to enhance your experience and personalize the content and advertising you see.
Visit our Privacy Policy to learn more. By continuing to use the site, you agree to this use of cookies and data.

Meteo pe oră la Shkoder

Astăzi, 13 August, Joi

Timp Temperatura Precipitaţii Vânt Presiune Umiditate
00:00 +23°C° 0 mm 2 m/s 741 mmHg 79%
01:00 +21°C° 0 mm 2 m/s 741 mmHg 78%
02:00 +21°C° 0 mm 2 m/s 740 mmHg 78%
03:00 +21°C° 0 mm 2 m/s 740 mmHg 78%
04:00 +21°C° 0 mm 2 m/s 740 mmHg 77%
05:00 +23°C° 0 mm 2 m/s 740 mmHg 74%
06:00 +24°C° 0 mm 2 m/s 741 mmHg 70%
07:00 +26°C° 0 mm 2 m/s 741 mmHg 67%
08:00 +28°C° 0 mm 2 m/s 741 mmHg 59%
09:00 +30°C° 0 mm 1 m/s 741 mmHg 52%
10:00 +31°C° 0 mm 1 m/s 741 mmHg 45%
11:00 +32°C° 0 mm 2 m/s 741 mmHg 43%
12:00 +34°C° 0 mm 2 m/s 740 mmHg 41%
13:00 +35°C° 0 mm 2 m/s 740 mmHg 39%
14:00 +35°C° 0.1 mm 2 m/s 740 mmHg 40%
15:00 +34°C° 0.1 mm 2 m/s 740 mmHg 41%
16:00 +34°C° 0.1 mm 2 m/s 739 mmHg 42%
17:00 +31°C° 0 mm 2 m/s 739 mmHg 49%
18:00 +29°C° 0 mm 1 m/s 739 mmHg 56%
19:00 +27°C° 0 mm 1 m/s 739 mmHg 63%
20:00 +26°C° 0 mm 1 m/s 740 mmHg 64%
21:00 +26°C° 0 mm 1 m/s 740 mmHg 65%
22:00 +25°C° 0 mm 1 m/s 740 mmHg 66%
23:00 +25°C° 0 mm 1 m/s 740 mmHg 66%

Mâine, 14 August, Vineri

Timp Temperatura Precipitaţii Vânt Presiune Umiditate
00:00 +25°C° 0 mm 1 m/s 740 mmHg 66%
01:00 +24°C° 0 mm 1 m/s 739 mmHg 66%
02:00 +24°C° 0 mm 1 m/s 739 mmHg 67%
03:00 +24°C° 0 mm 1 m/s 739 mmHg 67%
04:00 +24°C° 0 mm 1 m/s 739 mmHg 68%
05:00 +25°C° 0 mm 1 m/s 739 mmHg 64%
06:00 +27°C° 0 mm 1 m/s 739 mmHg 60%
07:00 +26°C° 0 mm 0 m/s 739 mmHg 56%
08:00 +30°C° 0 mm 1 m/s 739 mmHg 51%
09:00 +32°C° 0 mm 1 m/s 739 mmHg 46%
10:00 +33°C° 0 mm 1 m/s 739 mmHg 41%
11:00 +34°C° 0 mm 1 m/s 739 mmHg 39%
12:00 +36°C° 0 mm 2 m/s 738 mmHg 37%
13:00 +36°C° 0 mm 3 m/s 738 mmHg 34%
14:00 +36°C° 0 mm 2 m/s 738 mmHg 37%
15:00 +35°C° 0 mm 2 m/s 738 mmHg 39%
16:00 +35°C° 0 mm 2 m/s 737 mmHg 42%
17:00 +32°C° 0 mm 1 m/s 737 mmHg 48%
18:00 +29°C° 0 mm 1 m/s 737 mmHg 54%
19:00 +27°C° 0 mm 1 m/s 737 mmHg 60%
20:00 +27°C° 0.1 mm 1 m/s 737 mmHg 61%
21:00 +26°C° 0.1 mm 1 m/s 737 mmHg 63%
22:00 +26°C° 0.1 mm 1 m/s 738 mmHg 64%
23:00 +25°C° 0 mm 1 m/s 738 mmHg 65%

Poimâine, 15 August, Sâmbătă

Timp Temperatura Precipitaţii Vânt Presiune Umiditate
00:00 +25°C° 0 mm 1 m/s 737 mmHg 65%
01:00 +25°C° 0 mm 1 m/s 737 mmHg 66%
02:00 +25°C° 0 mm 1 m/s 737 mmHg 65%
03:00 +25°C° 0 mm 1 m/s 737 mmHg 65%
04:00 +25°C° 0 mm 1 m/s 737 mmHg 64%
05:00 +26°C° 0 mm 1 m/s 737 mmHg 62%
06:00 +27°C° 0 mm 1 m/s 737 mmHg 59%
07:00 +29°C° 0 mm 1 m/s 737 mmHg 56%
08:00 +30°C° 0.1 mm 1 m/s 737 mmHg 51%
09:00 +31°C° 0.1 mm 1 m/s 737 mmHg 46%
10:00 +34°C° 0.1 mm 2 m/s 737 mmHg 41%
11:00 +34°C° 0.1 mm 2 m/s 737 mmHg 40%
12:00 +34°C° 0.1 mm 2 m/s 737 mmHg 39%
13:00 +35°C° 0.1 mm 3 m/s 737 mmHg 38%
14:00 +34°C° 0.1 mm 3 m/s 737 mmHg 39%
15:00 +34°C° 0.1 mm 3 m/s 736 mmHg 40%
16:00 +34°C° 0.1 mm 3 m/s 736 mmHg 40%
17:00 +30°C° 0.1 mm 2 m/s 736 mmHg 50%
18:00 +28°C° 0.1 mm 2 m/s 737 mmHg 59%
19:00 +26°C° 0.1 mm 1 m/s 737 mmHg 69%
20:00 +25°C° 0.1 mm 1 m/s 737 mmHg 72%
21:00 +24°C° 0.1 mm 1 m/s 737 mmHg 75%
22:00 +23°C° 0.1 mm 2 m/s 737 mmHg 78%
23:00 +23°C° 0 mm 2 m/s 737 mmHg 78%

16 August, Duminică

Timp Temperatura Precipitaţii Vânt Presiune Umiditate
00:00 +21°C° 0 mm 2 m/s 737 mmHg 77%
01:00 +22°C° 0 mm 1 m/s 737 mmHg 77%
02:00 +22°C° 0 mm 1 m/s 737 mmHg 77%
03:00 +22°C° 0 mm 1 m/s 737 mmHg 77%
04:00 +22°C° 0 mm 1 m/s 737 mmHg 77%
05:00 +23°C° 0 mm 1 m/s 737 mmHg 73%
06:00 +24°C° 0 mm 1 m/s 737 mmHg 69%
07:00 +26°C° 0 mm 1 m/s 737 mmHg 65%
08:00 +28°C° 0 mm 1 m/s 737 mmHg 58%
09:00 +30°C° 0 mm 1 m/s 738 mmHg 51%
10:00 +32°C° 0 mm 1 m/s 738 mmHg 44%
11:00 +32°C° 0.2 mm 2 m/s 738 mmHg 43%
12:00 +34°C° 0.2 mm 2 m/s 738 mmHg 41%
13:00 +34°C° 0.2 mm 3 m/s 738 mmHg 40%
14:00 +34°C° 0.2 mm 2 m/s 737 mmHg 42%
15:00 +32°C° 0.2 mm 2 m/s 737 mmHg 43%
16:00 +32°C° 0.2 mm 2 m/s 737 mmHg 45%
17:00 +30°C° 0 mm 2 m/s 737 mmHg 52%
18:00 +28°C° 0 mm 1 m/s 737 mmHg 58%
19:00 +26°C° 0 mm 1 m/s 738 mmHg 65%
20:00 +26°C° 0 mm 1 m/s 738 mmHg 66%
21:00 +25°C° 0 mm 1 m/s 738 mmHg 67%
22:00 +25°C° 0 mm 1 m/s 738 mmHg 69%
23:00 +24°C° 0 mm 1 m/s 738 mmHg 70%

17 August, Luni

Timp Temperatura Precipitaţii Vânt Presiune Umiditate
00:00 +24°C° 0 mm 1 m/s 738 mmHg 71%
01:00 +24°C° 0 mm 1 m/s 738 mmHg 72%
02:00 +23°C° 0 mm 1 m/s 738 mmHg 73%
03:00 +23°C° 0 mm 1 m/s 738 mmHg 73%
04:00 +23°C° 0 mm 1 m/s 738 mmHg 74%
05:00 +24°C° 0 mm 1 m/s 738 mmHg 69%
06:00 +26°C° 0 mm 1 m/s 738 mmHg 64%
07:00 +27°C° 0 mm 1 m/s 738 mmHg 59%
08:00 +29°C° 0 mm 1 m/s 738 mmHg 55%
09:00 +31°C° 0 mm 1 m/s 738 mmHg 50%
10:00 +32°C° 0 mm 1 m/s 738 mmHg 45%
11:00 +34°C° 0.1 mm 2 m/s 738 mmHg 44%
12:00 +34°C° 0.1 mm 3 m/s 738 mmHg 42%
13:00 +35°C° 0.1 mm 3 m/s 738 mmHg 41%
14:00 +34°C° 0 mm 3 m/s 737 mmHg 41%
15:00 +34°C° 0 mm 3 m/s 737 mmHg 42%
16:00 +34°C° 0 mm 3 m/s 737 mmHg 42%
17:00 +30°C° 0 mm 2 m/s 737 mmHg 50%
18:00 +28°C° 0 mm 1 m/s 737 mmHg 59%
19:00 +26°C° 0 mm 1 m/s 736 mmHg 67%
20:00 +25°C° 0 mm 1 m/s 736 mmHg 68%
21:00 +25°C° 0 mm 1 m/s 737 mmHg 70%
22:00 +24°C° 0 mm 1 m/s 737 mmHg 71%
23:00 +24°C° 0 mm 1 m/s 736 mmHg 71%

18 August, Marţi

Timp Temperatura Precipitaţii Vânt Presiune Umiditate
00:00 +24°C° 0 mm 1 m/s 736 mmHg 71%
01:00 +23°C° 0 mm 1 m/s 736 mmHg 71%
02:00 +23°C° 0 mm 1 m/s 736 mmHg 71%
03:00 +23°C° 0 mm 1 m/s 736 mmHg 71%
04:00 +23°C° 0 mm 1 m/s 735 mmHg 70%
05:00 +25°C° 0 mm 1 m/s 735 mmHg 64%
06:00 +26°C° 0 mm 1 m/s 735 mmHg 59%
07:00 +28°C° 0 mm 1 m/s 735 mmHg 53%
08:00 +30°C° 0 mm 1 m/s 735 mmHg 47%
09:00 +31°C° 0 mm 1 m/s 735 mmHg 41%
10:00 +34°C° 0 mm 2 m/s 735 mmHg 35%
11:00 +34°C° 0.1 mm 2 m/s 735 mmHg 35%
12:00 +35°C° 0.1 mm 3 m/s 735 mmHg 34%
13:00 +35°C° 0.1 mm 4 m/s 734 mmHg 34%
14:00 +34°C° 0 mm 4 m/s 734 mmHg 36%
15:00 +34°C° 0 mm 3 m/s 734 mmHg 38%
16:00 +33°C° 0 mm 3 m/s 734 mmHg 41%
17:00 +30°C° 0 mm 2 m/s 734 mmHg 52%
18:00 +27°C° 0 mm 1 m/s 734 mmHg 63%
19:00 +23°C° 0 mm 0 m/s 734 mmHg 74%
20:00 +24°C° 0 mm 1 m/s 735 mmHg 75%
21:00 +24°C° 0 mm 1 m/s 735 mmHg 76%
22:00 +23°C° 0 mm 1 m/s 735 mmHg 77%
23:00 +23°C° 0.1 mm 1 m/s 735 mmHg 77%
Arată mai mult